EW9561 Weather Reports


time (UTC)temp
C
wind
direction
speed
KPH
gust
KPH
rain 1hr
cm
rain 24hr
cm
rain mn
cm
humidity
%
barometer
mb
20260906191527 23 143 4.8 11.3 0.00 0.00 0.00 60 1020.2
20260906190006 23 143 3.2 9.7 0.00 0.00 0.00 59 1020.3
20260906184509 23 160 3.2 8.0 0.00 0.00 0.00 61 1020.5
20260906183028 23 172 3.2 11.3 0.00 0.00 0.00 63 1020.6
20260906181525 23 158 3.2 9.7 0.00 0.00 0.00 61 1020.6
20260906180028 23 172 4.8 9.7 0.00 0.00 0.00 60 1020.8
20260906174509 23 141 3.2 11.3 0.00 0.00 0.00 61 1020.8
20260906173012 23 129 4.8 9.7 0.00 0.00 0.00 62 1020.9
20260906171518 23 148 4.8 9.7 0.00 0.00 0.00 59 1021.0
20260906170025 23 172 3.2 8.0 0.00 0.00 0.00 59 1021.2
20260906164503 23 163 1.6 9.7 0.00 0.00 0.00 63 1021.2
20260906163017 22 148 4.8 9.7 0.00 0.00 0.00 63 1021.3
20260906161516 22 150 3.2 9.7 0.00 0.00 0.00 67 1021.2
20260906160024 22 149 4.8 11.3 0.00 0.00 0.00 63 1021.1
20260906154529 22 149 3.2 9.7 0.00 0.00 0.00 65 1021.1
20260906153013 22 140 3.2 11.3 0.00 0.00 0.00 68 1021.1
20260906151510 21 195 4.8 8.0 0.00 0.00 0.00 67 1021.2
20260906150019 21 151 3.2 9.7 0.00 0.00 0.00 69 1021.0
20260906144526 22 145 3.2 8.0 0.00 0.00 0.00 70 1021.3
20260906143027 21 152 3.2 11.3 0.00 0.00 0.00 73 1021.3
20260906141521 20 287 0.0 6.4 0.00 0.00 0.00 78 1021.3
20260906140032 18 287 0.0 4.8 0.00 0.00 0.00 82 1021.3
20260906134527 17 288 0.0 4.8 0.00 0.00 0.00 87 1021.3
20260906133030 16 284 1.6 6.4 0.00 0.00 0.00 89 1021.2
20260906131533 14 319 1.6 4.8 0.00 0.00 0.00 91 1021.1
20260906130034 13 319 1.6 4.8 0.00 0.00 0.00 92 1021.0
20260906124519 13 319 1.6 4.8 0.00 0.00 0.00 93 1020.8
20260906123035 12 319 1.6 6.4 0.00 0.00 0.00 93 1020.8
20260906121533 11 295 1.6 6.4 0.00 0.03 0.00 93 1020.6
20260906120013 11 296 1.6 4.8 0.00 0.03 0.00 93 1020.7
20260906114521 11 297 1.6 4.8 0.00 0.03 0.00 93 1020.6
20260906113025 11 297 0.0 4.8 0.00 0.03 0.00 93 1020.4
20260906111532 11 297 0.0 4.8 0.00 0.03 0.00 93 1020.3
20260906110006 11 297 0.0 6.4 0.00 0.03 0.00 93 1020.3
20260906104518 11 303 0.0 4.8 0.00 0.03 0.00 93 1020.1
20260906103040 11 301 1.6 4.8 0.00 0.03 0.00 93 1020.1
20260906101527 11 302 1.6 6.4 0.00 0.03 0.00 93 1020.1
20260906100019 12 304 0.0 6.4 0.00 0.03 0.00 93 1020.2
20260906094511 12 281 1.6 8.0 0.00 0.03 0.00 93 1020.0
20260906093021 12 298 1.6 6.4 0.00 0.03 0.00 93 1019.8
20260906091528 12 316 1.6 6.4 0.00 0.03 0.00 93 1020.0
20260906090033 12 300 0.0 4.8 0.00 0.03 0.00 93 1019.8
20260906084510 12 296 0.0 3.2 0.00 0.03 0.00 93 1019.8
20260906083016 12 296 0.0 3.2 0.00 0.03 0.00 93 1019.9
20260906081525 12 296 1.6 4.8 0.00 0.03 0.00 93 1020.0
20260906080029 12 296 3.2 6.4 0.00 0.03 0.00 93 1019.9
20260906074533 12 287 1.6 4.8 0.00 0.03 0.00 93 1020.0
20260906073011 12 287 0.0 4.8 0.00 0.03 0.00 93 1020.1
20260906071519 12 287 0.0 4.8 0.00 0.03 0.00 93 1020.2
20260906070027 12 287 0.0 4.8 0.00 0.03 0.00 93 1020.3
20260906064534 12 288 1.6 4.8 0.00 0.03 0.00 93 1020.3
20260906063032 12 281 1.6 4.8 0.00 0.03 0.00 93 1020.2
20260906061523 12 281 1.6 4.8 0.00 0.03 0.00 93 1020.2
20260906060021 12 281 1.6 4.8 0.00 0.03 0.00 93 1020.1
20260906054535 12 281 1.6 6.4 0.00 0.03 0.00 93 1019.9
20260906053030 12 281 1.6 4.8 0.00 0.03 0.00 93 1020.0
20260906051532 13 281 1.6 6.4 0.00 0.03 0.00 92 1020.0
20260906050019 13 54 1.6 6.4 0.00 0.03 0.00 92 1020.0
20260906044523 13 61 1.6 6.4 0.00 0.03 0.03 92 1020.1
20260906043028 13 61 0.0 4.8 0.00 0.03 0.03 92 1019.9
20260906041533 13 61 1.6 3.2 0.00 0.03 0.03 92 1019.9
20260906040033 13 61 1.6 4.8 0.00 0.03 0.03 92 1019.8
20260906034520 13 61 1.6 4.8 0.00 0.03 0.03 92 1019.4
20260906033030 13 61 1.6 3.2 0.00 0.03 0.03 92 1019.2
20260906031530 13 61 1.6 4.8 0.00 0.03 0.03 92 1019.4
20260906030033 13 64 1.6 4.8 0.00 0.03 0.03 92 1019.3
20260906024533 13 65 1.6 4.8 0.00 0.03 0.03 92 1019.4
20260906023028 13 65 1.6 4.8 0.00 0.03 0.03 92 1019.3
20260906021540 13 65 1.6 4.8 0.00 0.03 0.03 91 1019.3
20260906020034 14 72 1.6 6.4 0.00 0.03 0.03 91 1019.2
20260906014537 14 75 1.6 4.8 0.00 0.03 0.03 90 1019.1
20260906013034 14 75 0.0 3.2 0.00 0.03 0.03 90 1019.0
20260906011532 15 75 1.6 4.8 0.00 0.03 0.03 90 1018.9
20260906010008 15 75 1.6 3.2 0.00 0.03 0.03 89 1018.9
20260906004510 16 75 0.0 3.2 0.00 0.03 0.03 88 1019.0
20260906003021 16 75 1.6 3.2 0.00 0.03 0.03 87 1018.9
20260906001520 17 75 0.0 3.2 0.00 0.03 0.03 84 1018.8
20260906000004 18 75 1.6 3.2 0.00 0.03 0.03 83 1018.9
20260905234507 19 75 0.0 0.0 0.00 0.03 0.03 81 1018.8
20260905233017 20 75 0.0 0.0 0.00 0.03 0.03 78 1019.1
20260905231519 21 75 0.0 1.6 0.00 0.03 0.03 72 1019.2
20260905230026 22 75 1.6 3.2 0.00 0.03 0.03 68 1019.3
20260905224510 22 75 1.6 3.2 0.00 0.03 0.03 68 1019.2
20260905223012 22 74 1.6 6.4 0.00 0.03 0.03 61 1019.2
20260905221517 22 141 1.6 6.4 0.00 0.03 0.03 61 1019.3
20260905220023 23 141 1.6 6.4 0.00 0.03 0.03 59 1019.3
20260905214530 23 141 1.6 8.0 0.00 0.03 0.03 62 1019.3
20260905213007 23 119 1.6 4.8 0.00 0.03 0.03 60 1019.3
20260905211513 23 119 1.6 8.0 0.00 0.03 0.03 61 1019.2
20260905210019 22 143 1.6 6.4 0.00 0.03 0.03 62 1019.2
20260905204526 22 152 3.2 6.4 0.00 0.03 0.03 66 1019.5
20260905203029 22 103 3.2 9.7 0.00 0.03 0.03 68 1019.4
20260905201514 22 151 1.6 8.0 0.00 0.03 0.03 67 1019.8
20260905200024 22 157 3.2 8.0 0.00 0.03 0.03 66 1019.8
20260905194523 22 112 1.6 6.4 0.00 0.03 0.03 68 1019.8
20260905193030 22 108 3.2 8.0 0.00 0.03 0.03 68 1020.0